| time (UTC) | temp F | wind direction | speed knots | gust knots | rain 1hr in | rain 24hr in | rain mn in | humidity % | barometer mb |
| 20260506092154 | 45 | 357 | 5.2 | 6.1 | 0.07 | 0.75 | 0.75 | 95 | 1008.9 |
| 20260506091652 | 45 | 336 | 2.6 | 3.5 | 0.05 | 0.74 | 0.74 | 95 | 1008.8 |
| 20260506091149 | 45 | 330 | 4.3 | 10.4 | 0.05 | 0.74 | 0.74 | 95 | 1008.6 |
| 20260506090647 | 45 | 351 | 0.9 | 3.5 | 0.07 | 0.73 | 0.73 | 95 | 1008.6 |
| 20260506090143 | 45 | 12 | 4.3 | 8.7 | 0.12 | 0.73 | 0.73 | 95 | 1008.3 |
| 20260506085640 | 45 | 11 | 5.2 | 7.0 | 0.05 | 0.72 | 0.72 | 95 | 1008.5 |
| 20260506085136 | 45 | 8 | 2.6 | 4.3 | 0.07 | 0.71 | 0.71 | 95 | 1008.6 |
| 20260506084633 | 45 | 353 | 4.3 | 7.0 | 0.07 | 0.71 | 0.71 | 95 | 1008.6 |
| 20260506084130 | 45 | 23 | 4.3 | 7.0 | 0.05 | 0.70 | 0.70 | 95 | 1008.6 |
| 20260506083627 | 45 | 42 | 6.1 | 9.6 | 0.24 | 0.70 | 0.70 | 95 | 1008.7 |
| 20260506083125 | 45 | 344 | 3.5 | 10.4 | 0.24 | 0.69 | 0.69 | 95 | 1008.9 |
| 20260506082621 | 46 | 25 | 3.5 | 7.0 | 0.19 | 0.66 | 0.66 | 95 | 1008.5 |
| 20260506082116 | 46 | 328 | 2.6 | 7.0 | 0.19 | 0.64 | 0.64 | 95 | 1008.3 |
| 20260506081615 | 46 | 5 | 5.2 | 4.3 | 0.24 | 0.63 | 0.63 | 96 | 1008.6 |
| 20260506081112 | 47 | 28 | 3.5 | 7.0 | 0.19 | 0.60 | 0.60 | 96 | 1008.3 |
| 20260506080610 | 47 | 333 | 7.0 | 7.0 | 0.24 | 0.59 | 0.59 | 96 | 1008.2 |
| 20260506080106 | 47 | 334 | 2.6 | 6.1 | 0.24 | 0.57 | 0.57 | 96 | 1008.4 |
| 20260506073050 | 47 | 348 | 4.3 | 9.6 | 0.17 | 0.46 | 0.46 | 96 | 1008.0 |
| 20260506072547 | 47 | 346 | 2.6 | 4.3 | 0.12 | 0.44 | 0.44 | 96 | 1008.0 |
| 20260506072045 | 47 | 12 | 2.6 | 6.1 | 0.12 | 0.43 | 0.43 | 96 | 1007.8 |
| 20260506071542 | 47 | 0 | 3.5 | 7.0 | 0.12 | 0.42 | 0.42 | 96 | 1007.9 |
| 20260506071040 | 47 | 4 | 3.5 | 4.3 | 0.19 | 0.41 | 0.41 | 96 | 1007.8 |
| 20260506070537 | 47 | 349 | 3.5 | 4.3 | 0.24 | 0.40 | 0.40 | 96 | 1007.9 |
| 20260506062514 | 48 | 342 | 5.2 | 6.1 | 0.26 | 0.28 | 0.28 | 95 | 1008.1 |
| 20260506062011 | 48 | 351 | 2.6 | 2.6 | 0.12 | 0.25 | 0.25 | 95 | 1008.4 |
| 20260506061506 | 48 | 351 | 4.3 | 4.3 | 0.12 | 0.24 | 0.24 | 95 | 1008.2 |
| 20260506061005 | 48 | 22 | 2.6 | 4.3 | 0.07 | 0.23 | 0.23 | 95 | 1008.2 |
| 20260506060503 | 48 | 346 | 2.6 | 4.3 | 0.12 | 0.22 | 0.22 | 95 | 1008.5 |
| 20260506050931 | 49 | 10 | 4.3 | 4.3 | 0.07 | 0.12 | 0.12 | 95 | 1009.1 |
| 20260506050429 | 49 | 23 | 1.7 | 4.3 | 0.00 | 0.11 | 0.11 | 95 | 1009.2 |
| 20260506044919 | 49 | 19 | 2.6 | 4.3 | 0.12 | 0.10 | 0.10 | 95 | 1009.2 |
| 20260506044418 | 49 | 21 | 2.6 | 3.5 | 0.05 | 0.09 | 0.09 | 95 | 1009.1 |
| 20260506043914 | 49 | 347 | 2.6 | 4.3 | 0.07 | 0.08 | 0.08 | 95 | 1009.2 |
| 20260506043412 | 49 | 328 | 4.3 | 6.1 | 0.05 | 0.07 | 0.07 | 95 | 1009.3 |
| 20260506042909 | 49 | 3 | 3.5 | 4.3 | 0.12 | 0.07 | 0.07 | 95 | 1009.3 |
| 20260506042409 | 49 | 16 | 0.9 | 2.6 | 0.12 | 0.06 | 0.06 | 95 | 1009.3 |
| 20260506041906 | 49 | 340 | 2.6 | 3.5 | 0.17 | 0.05 | 0.05 | 95 | 1009.3 |
| 20260506041403 | 49 | 11 | 3.5 | 4.3 | 0.19 | 0.04 | 0.04 | 95 | 1009.2 |
| 20260506040900 | 49 | 357 | 0.0 | 2.6 | 0.14 | 0.02 | 0.02 | 95 | 1009.3 |
| 20260506040358 | 49 | 7 | 4.3 | 6.1 | 0.12 | 0.00 | 0.00 | 95 | 1009.4 |
| 20260506035854 | 49 | 355 | 3.5 | 3.5 | 0.12 | 0.78 | 0.78 | 95 | 1009.2 |
| 20260506035351 | 49 | 340 | 4.3 | 6.1 | 0.05 | 0.76 | 0.76 | 95 | 1009.6 |
| 20260506034849 | 49 | 353 | 2.6 | 2.6 | 0.05 | 0.76 | 0.76 | 95 | 1009.5 |
| 20260506034346 | 49 | 30 | 4.3 | 6.1 | 0.07 | 0.75 | 0.75 | 94 | 1009.6 |
| 20260506033842 | 49 | 357 | 1.7 | 3.5 | 0.05 | 0.74 | 0.74 | 94 | 1009.7 |
| 20260506033339 | 49 | 16 | 3.5 | 7.0 | 0.12 | 0.74 | 0.74 | 94 | 1009.5 |
| 20260506032837 | 49 | 9 | 3.5 | 4.3 | 0.12 | 0.73 | 0.73 | 95 | 1009.7 |
| 20260506032333 | 50 | 41 | 0.9 | 2.6 | 0.12 | 0.72 | 0.72 | 95 | 1009.7 |
| 20260506031830 | 50 | 352 | 2.6 | 3.5 | 0.07 | 0.71 | 0.71 | 95 | 1009.8 |
| 20260506031327 | 50 | 38 | 3.5 | 6.1 | 0.12 | 0.70 | 0.70 | 95 | 1010.1 |
| 20260506030825 | 50 | 335 | 4.3 | 4.3 | 0.19 | 0.69 | 0.69 | 95 | 1010.2 |
| 20260506030323 | 50 | 331 | 4.3 | 3.5 | 0.19 | 0.68 | 0.68 | 95 | 1010.5 |
| 20260506025819 | 50 | 333 | 5.2 | 7.0 | 0.12 | 0.66 | 0.66 | 95 | 1010.0 |
| 20260506025316 | 50 | 337 | 0.9 | 2.6 | 0.12 | 0.65 | 0.65 | 95 | 1010.0 |
| 20260506024813 | 50 | 18 | 1.7 | 2.6 | 0.24 | 0.64 | 0.64 | 95 | 1010.0 |
| 20260506024310 | 50 | 354 | 0.0 | 0.9 | 0.35 | 0.63 | 0.63 | 95 | 1009.7 |
| 20260506023806 | 51 | 16 | 3.5 | 4.3 | 0.31 | 0.60 | 0.60 | 95 | 1009.6 |
| 20260506023303 | 51 | 332 | 0.0 | 0.9 | 0.31 | 0.57 | 0.57 | 95 | 1009.6 |
| 20260506022759 | 51 | 14 | 5.2 | 7.0 | 0.31 | 0.55 | 0.55 | 95 | 1009.3 |
| 20260506022257 | 51 | 5 | 0.0 | 2.6 | 0.17 | 0.52 | 0.52 | 95 | 1009.4 |
| 20260506021755 | 51 | 28 | 2.6 | 3.5 | 0.12 | 0.50 | 0.50 | 95 | 1009.3 |
| 20260506021252 | 51 | 0 | 2.6 | 3.5 | 0.12 | 0.49 | 0.49 | 95 | 1009.3 |
| 20260506020749 | 51 | 13 | 2.6 | 6.1 | 0.12 | 0.48 | 0.48 | 95 | 1009.3 |
| 20260506020247 | 51 | 30 | 4.3 | 7.0 | 0.19 | 0.47 | 0.47 | 95 | 1009.3 |
| 20260506015744 | 51 | 16 | 2.6 | 3.5 | 0.24 | 0.46 | 0.46 | 95 | 1009.3 |
| 20260506015241 | 51 | 24 | 2.6 | 6.1 | 0.12 | 0.44 | 0.44 | 95 | 1009.3 |
| 20260506014738 | 51 | 8 | 0.0 | 0.9 | 0.07 | 0.42 | 0.42 | 94 | 1009.3 |
| 20260506014235 | 51 | 7 | 3.5 | 3.5 | 0.07 | 0.42 | 0.42 | 94 | 1009.3 |
| 20260506013732 | 51 | 2 | 5.2 | 7.0 | 0.00 | 0.41 | 0.41 | 94 | 1009.2 |
| 20260506013229 | 51 | 28 | 6.1 | 7.0 | 0.00 | 0.41 | 0.41 | 94 | 1009.2 |
| 20260506012725 | 51 | 23 | 3.5 | 7.0 | 0.00 | 0.41 | 0.41 | 95 | 1009.1 |
| 20260506012222 | 52 | 14 | 2.6 | 4.3 | 0.00 | 0.41 | 0.41 | 95 | 1009.2 |
| 20260506011720 | 52 | 23 | 1.7 | 3.5 | 0.00 | 0.41 | 0.41 | 95 | 1009.1 |
| 20260506011215 | 52 | 8 | 3.5 | 4.3 | 0.05 | 0.41 | 0.41 | 95 | 1009.1 |
| 20260506010714 | 52 | 5 | 3.5 | 3.5 | 0.12 | 0.41 | 0.41 | 95 | 1009.1 |
| 20260506010211 | 52 | 349 | 3.5 | 3.5 | 0.12 | 0.40 | 0.40 | 94 | 1009.1 |
| 20260506005708 | 52 | 2 | 1.7 | 2.6 | 0.05 | 0.39 | 0.39 | 94 | 1009.0 |
| 20260506005205 | 52 | 9 | 1.7 | 3.5 | 0.00 | 0.38 | 0.38 | 94 | 1008.7 |
| 20260506004701 | 52 | 20 | 2.6 | 3.5 | 0.00 | 0.38 | 0.38 | 94 | 1008.9 |
| 20260506004159 | 53 | 355 | 2.6 | 3.5 | 0.00 | 0.38 | 0.38 | 94 | 1009.0 |
| 20260506003654 | 53 | 19 | 0.9 | 3.5 | 0.07 | 0.38 | 0.38 | 94 | 1008.8 |
| 20260506003151 | 53 | 36 | 1.7 | 0.9 | 0.07 | 0.38 | 0.38 | 94 | 1008.8 |
| 20260506002647 | 53 | 36 | 1.7 | 2.6 | 0.05 | 0.37 | 0.37 | 94 | 1008.9 |
| 20260506002143 | 53 | 42 | 0.9 | 2.6 | 0.12 | 0.37 | 0.37 | 94 | 1008.9 |
| 20260506001639 | 53 | 48 | 0.9 | 2.6 | 0.12 | 0.36 | 0.36 | 94 | 1008.9 |
| 20260506001137 | 53 | 30 | 1.7 | 0.9 | 0.12 | 0.35 | 0.35 | 94 | 1008.9 |
| 20260506000634 | 53 | 30 | 2.6 | 2.6 | 0.19 | 0.34 | 0.34 | 94 | 1008.9 |
| 20260506000131 | 53 | 21 | 1.7 | 2.6 | 0.24 | 0.33 | 0.33 | 93 | 1009.0 |
| 20260505235629 | 53 | 23 | 0.9 | 0.9 | 0.24 | 0.31 | 0.31 | 93 | 1009.1 |
| 20260505235125 | 53 | 23 | 0.0 | 2.6 | 0.31 | 0.29 | 0.29 | 92 | 1009.1 |
| 20260505234617 | 53 | 335 | 2.6 | 6.1 | 0.78 | 0.26 | 0.26 | 92 | 1009.4 |
| 20260505234114 | 54 | 298 | 2.6 | 7.0 | 1.21 | 0.23 | 0.23 | 90 | 1009.4 |
| 20260505233612 | 56 | 293 | 4.3 | 8.7 | 0.78 | 0.13 | 0.13 | 88 | 1009.6 |
| 20260505233109 | 59 | 314 | 7.0 | 8.7 | 0.12 | 0.02 | 0.02 | 88 | 1009.0 |
| 20260505232606 | 59 | 336 | 0.9 | 0.9 | 0.00 | 0.00 | 0.00 | 86 | 1008.5 |
| 20260505232104 | 59 | 280 | 2.6 | 2.6 | 0.00 | 0.00 | 0.00 | 85 | 1008.2 |
| 20260505231600 | 59 | 1 | 1.7 | 3.5 | 0.00 | 0.00 | 0.00 | 84 | 1008.2 |
| 20260505231059 | 59 | 351 | 1.7 | 2.6 | 0.00 | 0.00 | 0.00 | 84 | 1008.3 |
| 20260505230556 | 59 | 341 | 0.9 | 2.6 | 0.00 | 0.00 | 0.00 | 83 | 1008.2 |
| 20260505230052 | 60 | 327 | 2.6 | 6.1 | 0.00 | 0.00 | 0.00 | 83 | 1008.3 |
| 20260505225549 | 60 | 328 | 0.9 | 2.6 | 0.00 | 0.00 | 0.00 | 84 | 1008.3 |
| 20260505225045 | 60 | 7 | 1.7 | 2.6 | 0.00 | 0.00 | 0.00 | 83 | 1008.3 |
| 20260505224543 | 60 | 336 | 0.9 | 4.3 | 0.00 | 0.00 | 0.00 | 83 | 1008.2 |
| 20260505224040 | 60 | 341 | 0.9 | 3.5 | 0.00 | 0.00 | 0.00 | 82 | 1008.4 |
| 20260505223537 | 60 | 0 | 0.9 | 3.5 | 0.00 | 0.00 | 0.00 | 82 | 1008.5 |
| 20260505223033 | 60 | 333 | 3.5 | 4.3 | 0.00 | 0.00 | 0.00 | 82 | 1008.4 |
| 20260505222529 | 60 | 338 | 2.6 | 6.1 | 0.00 | 0.00 | 0.00 | 82 | 1008.5 |
| 20260505222026 | 60 | 4 | 2.6 | 3.5 | 0.00 | 0.00 | 0.00 | 81 | 1008.8 |
| 20260505221523 | 61 | 307 | 1.7 | 2.6 | 0.00 | 0.00 | 0.00 | 81 | 1008.6 |
| 20260505221019 | 61 | 347 | 0.9 | 2.6 | 0.00 | 0.00 | 0.00 | 81 | 1008.7 |
| 20260505220517 | 61 | 320 | 0.9 | 2.6 | 0.00 | 0.00 | 0.00 | 81 | 1008.9 |
| 20260505220015 | 61 | 354 | 2.6 | 3.5 | 0.00 | 0.00 | 0.00 | 80 | 1008.8 |
| 20260505215512 | 62 | 288 | 3.5 | 6.1 | 0.00 | 0.00 | 0.00 | 79 | 1008.5 |
| 20260505215010 | 62 | 298 | 2.6 | 3.5 | 0.00 | 0.00 | 0.00 | 77 | 1008.6 |
| 20260505214508 | 63 | 354 | 6.1 | 10.4 | 0.00 | 0.00 | 0.00 | 74 | 1008.7 |
| 20260505214004 | 63 | 354 | 2.6 | 3.5 | 0.00 | 0.00 | 0.00 | 73 | 1008.5 |
| 20260505213502 | 63 | 277 | 3.5 | 8.7 | 0.00 | 0.00 | 0.00 | 72 | 1008.6 |
| 20260505212958 | 63 | 264 | 1.7 | 3.5 | 0.00 | 0.00 | 0.00 | 73 | 1008.4 |
| 20260505212455 | 63 | 274 | 0.9 | 2.6 | 0.00 | 0.00 | 0.00 | 73 | 1008.4 |
| 20260505211952 | 63 | 273 | 2.6 | 4.3 | 0.00 | 0.00 | 0.00 | 72 | 1008.4 |
| 20260505211449 | 63 | 268 | 0.9 | 0.9 | 0.00 | 0.00 | 0.00 | 73 | 1008.5 |
| 20260505210945 | 63 | 290 | 2.6 | 3.5 | 0.00 | 0.00 | 0.00 | 72 | 1008.4 |
| 20260505210443 | 64 | 301 | 0.9 | 3.5 | 0.00 | 0.00 | 0.00 | 72 | 1008.4 |
| 20260505205939 | 64 | 207 | 1.7 | 3.5 | 0.00 | 0.00 | 0.00 | 71 | 1008.3 |
| 20260505205438 | 64 | 228 | 1.7 | 3.5 | 0.00 | 0.00 | 0.00 | 71 | 1008.3 |
| 20260505204934 | 64 | 264 | 3.5 | 4.3 | 0.00 | 0.00 | 0.00 | 70 | 1008.6 |
| 20260505204432 | 64 | 194 | 7.0 | 8.7 | 0.00 | 0.00 | 0.00 | 68 | 1008.4 |
| 20260505203929 | 65 | 255 | 7.0 | 8.7 | 0.00 | 0.00 | 0.00 | 67 | 1008.6 |
| 20260505203425 | 66 | 241 | 4.3 | 6.1 | 0.00 | 0.00 | 0.00 | 64 | 1008.4 |
| 20260505202922 | 66 | 266 | 3.5 | 7.0 | 0.00 | 0.00 | 0.00 | 62 | 1008.3 |
| 20260505202418 | 66 | 300 | 1.7 | 6.1 | 0.00 | 0.00 | 0.00 | 62 | 1008.4 |
| 20260505201915 | 66 | 242 | 2.6 | 2.6 | 0.00 | 0.00 | 0.00 | 63 | 1008.2 |
| 20260505201412 | 66 | 215 | 1.7 | 0.9 | 0.00 | 0.00 | 0.00 | 62 | 1008.1 |
| 20260505200910 | 66 | 215 | 3.5 | 6.1 | 0.00 | 0.00 | 0.00 | 60 | 1008.2 |
| 20260505200407 | 66 | 224 | 2.6 | 4.3 | 0.00 | 0.00 | 0.00 | 61 | 1008.4 |
| 20260505195902 | 66 | 212 | 2.6 | 4.3 | 0.00 | 0.00 | 0.00 | 61 | 1008.4 |
| 20260505195400 | 66 | 251 | 2.6 | 4.3 | 0.00 | 0.00 | 0.00 | 61 | 1008.3 |
| 20260505194857 | 67 | 247 | 5.2 | 9.6 | 0.00 | 0.00 | 0.00 | 60 | 1008.3 |
| 20260505194355 | 67 | 280 | 1.7 | 2.6 | 0.00 | 0.00 | 0.00 | 61 | 1008.5 |
| 20260505193854 | 67 | 202 | 2.6 | 3.5 | 0.00 | 0.00 | 0.00 | 60 | 1008.4 |
| 20260505193353 | 67 | 280 | 0.9 | 3.5 | 0.00 | 0.00 | 0.00 | 60 | 1008.4 |
| 20260505192850 | 66 | 355 | 1.7 | 8.7 | 0.00 | 0.00 | 0.00 | 62 | 1008.6 |
| 20260505192348 | 66 | 251 | 1.7 | 3.5 | 0.00 | 0.00 | 0.00 | 61 | 1008.5 |
| 20260505191845 | 66 | 274 | 2.6 | 6.1 | 0.00 | 0.00 | 0.00 | 61 | 1008.8 |
| 20260505191344 | 66 | 313 | 5.2 | 7.0 | 0.00 | 0.00 | 0.00 | 61 | 1008.8 |
| 20260505190840 | 66 | 233 | 5.2 | 4.3 | 0.00 | 0.00 | 0.00 | 60 | 1008.9 |
| 20260505190336 | 66 | 264 | 5.2 | 6.1 | 0.00 | 0.00 | 0.00 | 60 | 1008.9 |
| 20260505185831 | 66 | 293 | 6.1 | 7.0 | 0.00 | 0.00 | 0.00 | 60 | 1009.1 |
| 20260505185328 | 65 | 297 | 2.6 | 7.0 | 0.00 | 0.00 | 0.00 | 61 | 1009.1 |
| 20260505184824 | 65 | 273 | 3.5 | 8.7 | 0.00 | 0.00 | 0.00 | 62 | 1009.3 |
| 20260505184322 | 65 | 299 | 1.7 | 3.5 | 0.00 | 0.00 | 0.00 | 63 | 1009.4 |
| 20260505183819 | 65 | 255 | 2.6 | 3.5 | 0.00 | 0.00 | 0.00 | 61 | 1009.3 |
| 20260505183315 | 65 | 306 | 2.6 | 4.3 | 0.00 | 0.00 | 0.00 | 61 | 1009.2 |
| 20260505182812 | 65 | 297 | 2.6 | 7.0 | 0.00 | 0.00 | 0.00 | 61 | 1009.3 |
| 20260505182309 | 66 | 332 | 1.7 | 4.3 | 0.00 | 0.00 | 0.00 | 60 | 1008.9 |
| 20260505181806 | 66 | 266 | 2.6 | 3.5 | 0.00 | 0.00 | 0.00 | 60 | 1009.0 |
| 20260505181303 | 66 | 242 | 3.5 | 6.1 | 0.00 | 0.00 | 0.00 | 61 | 1008.9 |
| 20260505180759 | 66 | 313 | 2.6 | 4.3 | 0.00 | 0.00 | 0.00 | 59 | 1008.9 |
| 20260505180256 | 66 | 257 | 1.7 | 3.5 | 0.00 | 0.00 | 0.00 | 59 | 1008.7 |
| 20260505175752 | 67 | 284 | 2.6 | 6.1 | 0.00 | 0.00 | 0.00 | 58 | 1008.7 |
| 20260505175249 | 67 | 263 | 3.5 | 8.7 | 0.00 | 0.00 | 0.00 | 59 | 1008.8 |
| 20260505174745 | 67 | 324 | 6.1 | 7.0 | 0.00 | 0.00 | 0.00 | 58 | 1008.6 |
| 20260505174243 | 67 | 235 | 1.7 | 4.3 | 0.00 | 0.00 | 0.00 | 58 | 1008.6 |
| 20260505173739 | 67 | 261 | 3.5 | 6.1 | 0.00 | 0.00 | 0.00 | 59 | 1008.5 |
| 20260505173236 | 67 | 240 | 1.7 | 4.3 | 0.00 | 0.00 | 0.00 | 58 | 1008.4 |
| 20260505172732 | 67 | 263 | 6.1 | 8.7 | 0.00 | 0.00 | 0.00 | 57 | 1008.6 |
| 20260505172229 | 67 | 276 | 6.1 | 8.7 | 0.00 | 0.00 | 0.00 | 57 | 1008.3 |
| 20260505171729 | 67 | 242 | 3.5 | 13.0 | 0.00 | 0.00 | 0.00 | 57 | 1008.4 |
| 20260505171227 | 67 | 227 | 2.6 | 8.7 | 0.00 | 0.00 | 0.00 | 57 | 1008.7 |
| 20260505170723 | 68 | 254 | 8.7 | 10.4 | 0.00 | 0.00 | 0.00 | 56 | 1008.7 |
| 20260505170220 | 68 | 206 | 2.6 | 4.3 | 0.00 | 0.00 | 0.00 | 56 | 1008.7 |
| 20260505165716 | 68 | 264 | 2.6 | 12.2 | 0.00 | 0.00 | 0.00 | 55 | 1008.6 |
| 20260505165212 | 68 | 245 | 8.7 | 13.9 | 0.00 | 0.00 | 0.00 | 55 | 1008.5 |
| 20260505164707 | 68 | 240 | 4.3 | 8.7 | 0.00 | 0.00 | 0.00 | 55 | 1008.5 |
| 20260505164205 | 68 | 228 | 3.5 | 13.9 | 0.00 | 0.00 | 0.00 | 54 | 1008.4 |
| 20260505163703 | 68 | 261 | 1.7 | 8.7 | 0.00 | 0.00 | 0.00 | 54 | 1008.5 |
| 20260505163201 | 69 | 178 | 2.6 | 13.0 | 0.00 | 0.00 | 0.00 | 52 | 1008.6 |
| 20260505162658 | 70 | 234 | 4.3 | 9.6 | 0.00 | 0.00 | 0.00 | 52 | 1008.6 |
| 20260505162155 | 71 | 237 | 2.6 | 7.0 | 0.00 | 0.00 | 0.00 | 53 | 1008.5 |
| 20260505161652 | 69 | 218 | 4.3 | 12.2 | 0.00 | 0.00 | 0.00 | 53 | 1008.3 |
| 20260505161149 | 69 | 248 | 8.7 | 13.0 | 0.00 | 0.00 | 0.00 | 54 | 1008.2 |
| 20260505160647 | 70 | 250 | 6.1 | 13.9 | 0.00 | 0.00 | 0.00 | 52 | 1007.9 |
| 20260505160144 | 70 | 298 | 4.3 | 20.0 | 0.00 | 0.00 | 0.00 | 53 | 1007.9 |
| 20260505153124 | 68 | 269 | 5.2 | 13.9 | 0.00 | 0.00 | 0.00 | 56 | 1008.5 |
| 20260505152620 | 67 | 254 | 3.5 | 8.7 | 0.00 | 0.00 | 0.00 | 57 | 1008.4 |
| 20260505152116 | 67 | 256 | 6.1 | 10.4 | 0.00 | 0.00 | 0.00 | 57 | 1008.4 |
| 20260505151611 | 67 | 262 | 4.3 | 15.6 | 0.00 | 0.00 | 0.00 | 56 | 1008.2 |
| 20260505151109 | 67 | 318 | 4.3 | 13.9 | 0.00 | 0.00 | 0.00 | 57 | 1008.1 |
| 20260505150605 | 67 | 273 | 4.3 | 8.7 | 0.00 | 0.00 | 0.00 | 59 | 1008.4 |
| 20260505140531 | 65 | 237 | 8.7 | 9.6 | 0.00 | 0.00 | 0.00 | 61 | 1008.0 |
| 20260505124944 | 61 | 216 | 1.7 | 8.7 | 0.00 | 0.00 | 0.00 | 69 | 1007.6 |
| 20260505124441 | 61 | 176 | 4.3 | 6.1 | 0.00 | 0.00 | 0.00 | 69 | 1007.2 |
| 20260505123937 | 62 | 172 | 4.3 | 7.0 | 0.00 | 0.00 | 0.00 | 67 | 1007.6 |
| 20260505123433 | 62 | 207 | 3.5 | 7.0 | 0.00 | 0.00 | 0.00 | 66 | 1007.7 |
| 20260505122929 | 62 | 223 | 3.5 | 7.0 | 0.00 | 0.00 | 0.00 | 67 | 1007.2 |
| 20260505122427 | 62 | 266 | 7.0 | 8.7 | 0.00 | 0.00 | 0.00 | 66 | 1007.4 |
| 20260505121924 | 62 | 205 | 4.3 | 4.3 | 0.00 | 0.00 | 0.00 | 65 | 1007.5 |
| 20260505121421 | 62 | 192 | 1.7 | 6.1 | 0.00 | 0.00 | 0.00 | 65 | 1007.5 |
| 20260505120916 | 62 | 261 | 4.3 | 9.6 | 0.00 | 0.00 | 0.00 | 65 | 1007.7 |
| 20260505120413 | 62 | 210 | 2.6 | 6.1 | 0.00 | 0.00 | 0.00 | 65 | 1007.6 |
| 20260505115912 | 62 | 209 | 2.6 | 9.6 | 0.00 | 0.00 | 0.00 | 64 | 1007.9 |
| 20260505115409 | 63 | 223 | 2.6 | 9.6 | 0.00 | 0.00 | 0.00 | 63 | 1007.7 |
| 20260505114907 | 63 | 181 | 4.3 | 9.6 | 0.00 | 0.00 | 0.00 | 63 | 1007.5 |
| 20260505114403 | 63 | 171 | 2.6 | 6.1 | 0.00 | 0.00 | 0.00 | 64 | 1007.5 |
| 20260505113859 | 63 | 126 | 3.5 | 6.1 | 0.00 | 0.00 | 0.00 | 63 | 1007.5 |
| 20260505113356 | 63 | 227 | 2.6 | 7.0 | 0.00 | 0.00 | 0.00 | 63 | 1007.6 |
| 20260505112852 | 63 | 241 | 4.3 | 7.0 | 0.00 | 0.00 | 0.00 | 62 | 1007.5 |
| 20260505112350 | 63 | 285 | 4.3 | 9.6 | 0.00 | 0.00 | 0.00 | 62 | 1007.4 |
| 20260505111845 | 63 | 228 | 3.5 | 8.7 | 0.00 | 0.00 | 0.00 | 62 | 1007.1 |
| 20260505111340 | 63 | 223 | 7.8 | 9.6 | 0.00 | 0.00 | 0.00 | 62 | 1007.1 |
| 20260505110837 | 63 | 227 | 4.3 | 6.1 | 0.00 | 0.00 | 0.00 | 62 | 1006.9 |
| 20260505110334 | 63 | 273 | 8.7 | 12.2 | 0.00 | 0.00 | 0.00 | 62 | 1007.0 |
| 20260505101809 | 63 | 220 | 7.0 | 9.6 | 0.00 | 0.00 | 0.00 | 61 | 1006.7 |
| 20260505101304 | 64 | 215 | 4.3 | 7.0 | 0.00 | 0.00 | 0.00 | 60 | 1006.5 |
| 20260505100801 | 63 | 154 | 5.2 | 7.0 | 0.00 | 0.00 | 0.00 | 60 | 1006.5 |
| 20260505100257 | 63 | 185 | 5.2 | 13.9 | 0.00 | 0.00 | 0.00 | 60 | 1006.4 |
| 20260505095753 | 63 | 153 | 2.6 | 6.1 | 0.00 | 0.00 | 0.00 | 61 | 1006.5 |
| 20260505095251 | 64 | 260 | 2.6 | 9.6 | 0.00 | 0.00 | 0.00 | 60 | 1006.4 |
| 20260505094746 | 64 | 208 | 6.1 | 9.6 | 0.00 | 0.00 | 0.00 | 60 | 1006.3 |
| 20260505094243 | 64 | 173 | 2.6 | 4.3 | 0.00 | 0.00 | 0.00 | 60 | 1006.3 |
| 20260505093739 | 64 | 225 | 2.6 | 8.7 | 0.00 | 0.00 | 0.00 | 59 | 1006.0 |
| 20260505093237 | 64 | 277 | 6.1 | 9.6 | 0.00 | 0.00 | 0.00 | 59 | 1006.3 |
| 20260505092734 | 64 | 123 | 4.3 | 10.4 | 0.00 | 0.00 | 0.00 | 59 | 1006.1 |